Location: Breungeshain
(50.5000°N, 9.2000°E)
Time: 21:41:27
(UTC+00:00)

ISS - Visible Passes

Search period start: 23 January 2019 00:00
Search period end: 02 February 2019 00:00
Orbit: 404 x 410 km, 51.6° (Epoch: 24 January)

Date Brightness Start Highest point End Pass type
(mag) Time Alt. Az. Time Alt. Az. Time Alt. Az.
23 Jan -1.7 17:39:17 10° S 17:41:05 15° SE 17:41:05 15° SE visible
24 Jan -2.2 18:22:52 10° SW 18:24:47 28° SSW 18:24:47 28° SSW visible
25 Jan -2.5 17:31:53 10° SSW 17:34:45 27° SSE 17:35:41 24° ESE visible
25 Jan -0.7 19:07:44 10° WSW 19:08:24 15° WSW 19:08:24 15° WSW visible
26 Jan -1.8 16:41:13 10° S 16:43:33 18° SE 16:45:55 10° E visible
26 Jan -3.4 18:16:23 10° WSW 18:19:13 58° SSW 18:19:13 58° SSW visible
27 Jan -3.3 17:25:08 10° SW 17:28:20 49° SSE 17:30:00 24° E visible
27 Jan -1.1 19:01:31 10° W 19:02:43 20° W 19:02:43 20° W visible
28 Jan -3.9 18:10:05 10° W 18:13:23 84° NNW 18:13:25 83° N visible
29 Jan -3.8 17:18:40 10° WSW 17:21:58 79° SSE 17:24:07 20° ENE visible
29 Jan -1.5 18:55:17 10° W 18:56:50 25° WNW 18:56:50 25° WNW visible
30 Jan -3.8 18:03:48 10° W 18:07:06 71° N 18:07:30 62° NE visible
31 Jan -3.8 17:12:19 10° W 17:15:38 78° N 17:18:09 16° ENE visible
31 Jan -2.0 18:48:58 10° WNW 18:50:52 31° WNW 18:50:52 31° WNW visible
01 Feb -3.8 17:57:29 10° W 18:00:48 72° N 18:01:32 49° ENE visible
01 Feb -0.2 19:34:05 10° WNW 19:34:14 11° W 19:34:14 11° W visible
